HVN594 VVTS-VHHH

Flight info

Callsign HVN594
Flight time 1h 57m
Altitude 39000
Route PATMA5N PATMA W12 PCA G221 BUNTA A1 IKELA/N0491F390 P901 IDOSI V561 CANTO
Aircraft B789/H-SDE1E2E3FGHIJ2J3J4J5M1RWXY/LB1D1

Departure

Time 2026-05-07 03:45
Airport Tan Son Nhat International Airport (VVTS)

Arrival

Time 2026-05-07 05:43
Airport Hong Kong International Airport (VHHH)
Time Latitude Longitude Altitude Speed Heading
2026-05-07 03:33 10.81781 106.66439 42 ft 7 kts 159°
2026-05-07 03:35 10.81801 106.66430 42 ft 4 kts 155°
2026-05-07 03:35 10.81825 106.66418 41 ft 4 kts 147°
2026-05-07 03:36 10.81847 106.66402 39 ft 4 kts 133°
2026-05-07 03:36 10.81860 106.66381 39 ft 4 kts 91°
2026-05-07 03:36 10.81860 106.66371 39 ft 0 kts 68°
2026-05-07 03:40 10.81860 106.66372 42 ft 1 kts 68°
2026-05-07 03:40 10.81863 106.66381 40 ft 2 kts 68°
2026-05-07 03:40 10.81872 106.66402 42 ft 4 kts 69°
2026-05-07 03:40 10.81886 106.66440 41 ft 7 kts 69°
2026-05-07 03:41 10.81907 106.66495 42 ft 10 kts 69°
2026-05-07 03:41 10.81933 106.66566 42 ft 12 kts 69°
2026-05-07 03:41 10.81966 106.66651 42 ft 14 kts 69°
2026-05-07 03:41 10.82003 106.66749 42 ft 16 kts 69°
2026-05-07 03:42 10.82045 106.66857 42 ft 17 kts 63°
2026-05-07 03:42 10.82135 106.66949 40 ft 20 kts 39°
2026-05-07 03:42 10.82228 106.67011 41 ft 11 kts 11°
2026-05-07 03:42 10.82306 106.66986 40 ft 12 kts 324°
2026-05-07 03:43 10.82353 106.66949 40 ft 5 kts 329°
2026-05-07 03:43 10.82358 106.66941 40 ft 1 kts 297°
2026-05-07 03:43 10.82359 106.66926 40 ft 4 kts 266°
2026-05-07 03:43 10.82348 106.66893 40 ft 0 kts 249°
2026-05-07 03:44 10.82347 106.66890 40 ft 2 kts 249°
2026-05-07 03:44 10.82317 106.66811 39 ft 34 kts 249°
2026-05-07 03:45 10.82124 106.66297 40 ft 120 kts 249°
2026-05-07 03:45 10.81742 106.65275 98 ft 185 kts 245°
2026-05-07 03:45 10.81276 106.64067 1030 ft 183 kts 245°
2026-05-07 03:45 10.80833 106.62836 1846 ft 195 kts 248°
2026-05-07 03:46 10.80330 106.61447 2399 ft 224 kts 247°
2026-05-07 03:46 10.79737 106.59869 2950 ft 252 kts 248°
2026-05-07 03:46 10.79407 106.58057 3596 ft 279 kts 277°
2026-05-07 03:46 10.80161 106.56236 4700 ft 281 kts 310°
2026-05-07 03:47 10.81714 106.55101 5927 ft 277 kts 346°
2026-05-07 03:47 10.83614 106.54965 7012 ft 276 kts
2026-05-07 03:47 10.85547 106.55214 8101 ft 281 kts 11°
2026-05-07 03:47 10.87499 106.55511 9166 ft 286 kts 11°
2026-05-07 03:48 10.89489 106.55781 10180 ft 292 kts
2026-05-07 03:48 10.91601 106.56050 10603 ft 319 kts
2026-05-07 03:48 10.93884 106.56345 10917 ft 347 kts
2026-05-07 03:48 10.96354 106.56673 11460 ft 362 kts 10°
2026-05-07 03:49 10.98733 106.57446 12397 ft 361 kts 32°
2026-05-07 03:49 11.00666 106.59074 13281 ft 363 kts 51°
2026-05-07 03:49 11.02093 106.61184 14055 ft 368 kts 60°
2026-05-07 03:49 11.03390 106.63456 14841 ft 373 kts 60°
2026-05-07 03:50 11.04783 106.65710 15642 ft 379 kts 55°
2026-05-07 03:50 11.06429 106.67832 16405 ft 385 kts 50°
2026-05-07 03:50 11.08185 106.69919 17158 ft 390 kts 51°
2026-05-07 03:50 11.09877 106.72099 17878 ft 394 kts 54°
2026-05-07 03:51 11.10974 106.73591 18321 ft 398 kts 54°
2026-05-07 03:51 11.13222 106.76579 19137 ft 404 kts 53°
2026-05-07 03:51 11.14404 106.78096 19556 ft 407 kts 52°
2026-05-07 03:51 11.16171 106.80371 20172 ft 411 kts 53°
2026-05-07 03:52 11.17938 106.82687 20765 ft 416 kts 53°
2026-05-07 03:52 11.19700 106.85004 21346 ft 420 kts 53°
2026-05-07 03:52 11.21508 106.87364 21931 ft 424 kts 53°
2026-05-07 03:52 11.23338 106.89746 22479 ft 429 kts 53°
2026-05-07 03:53 11.25178 106.92150 23033 ft 433 kts 53°
2026-05-07 03:53 11.27045 106.94594 23534 ft 438 kts 53°
2026-05-07 03:53 11.28921 106.97048 23977 ft 441 kts 53°
2026-05-07 03:53 11.30822 106.99531 24390 ft 444 kts 53°
2026-05-07 03:54 11.32705 107.01994 24813 ft 448 kts 53°
2026-05-07 03:54 11.34632 107.04510 25232 ft 451 kts 52°
2026-05-07 03:54 11.36840 107.06789 25617 ft 455 kts 39°
2026-05-07 03:54 11.39375 107.08755 25964 ft 459 kts 37°
2026-05-07 03:55 11.41951 107.10703 26384 ft 462 kts 37°
2026-05-07 03:55 11.44543 107.12664 26770 ft 465 kts 37°
2026-05-07 03:55 11.47139 107.14653 27150 ft 468 kts 38°
2026-05-07 03:55 11.49759 107.16666 27534 ft 472 kts 37°
2026-05-07 03:56 11.52397 107.18680 27897 ft 475 kts 37°
2026-05-07 03:56 11.55022 107.20680 28269 ft 478 kts 37°
2026-05-07 03:56 11.57698 107.22726 28612 ft 481 kts 37°
2026-05-07 03:56 11.60387 107.24785 28962 ft 485 kts 37°
2026-05-07 03:57 11.63093 107.26855 29314 ft 488 kts 37°
2026-05-07 03:57 11.65821 107.28941 29658 ft 491 kts 37°
2026-05-07 03:57 11.68568 107.31042 29969 ft 494 kts 37°
2026-05-07 03:57 11.71323 107.33152 30255 ft 496 kts 37°
2026-05-07 03:58 11.74088 107.35270 30543 ft 498 kts 37°
2026-05-07 03:58 11.76838 107.37375 30818 ft 500 kts 37°
2026-05-07 03:58 11.79627 107.39511 31082 ft 503 kts 37°
2026-05-07 03:58 11.82441 107.41667 31334 ft 505 kts 37°
2026-05-07 03:59 11.85251 107.43821 31610 ft 507 kts 37°
2026-05-07 03:59 11.88078 107.45989 31835 ft 509 kts 37°
2026-05-07 03:59 11.90925 107.48172 32083 ft 510 kts 37°
2026-05-07 03:59 11.93764 107.50350 32323 ft 513 kts 37°
2026-05-07 04:00 11.96626 107.52545 32559 ft 514 kts 37°
2026-05-07 04:00 11.99459 107.54720 32777 ft 516 kts 37°
2026-05-07 04:00 12.02340 107.56931 33043 ft 517 kts 37°
2026-05-07 04:00 12.05218 107.59141 33389 ft 516 kts 37°
2026-05-07 04:01 12.08084 107.61343 33731 ft 515 kts 37°
2026-05-07 04:01 12.10950 107.63545 34056 ft 514 kts 37°
2026-05-07 04:01 12.13806 107.65740 34378 ft 512 kts 37°
2026-05-07 04:01 12.16619 107.67902 34687 ft 511 kts 37°
2026-05-07 04:02 12.19449 107.70078 35010 ft 509 kts 37°
2026-05-07 04:02 12.22285 107.72259 35278 ft 509 kts 37°
2026-05-07 04:02 12.25123 107.74443 35585 ft 507 kts 37°
2026-05-07 04:02 12.27939 107.76610 35884 ft 506 kts 36°
2026-05-07 04:03 12.30748 107.78772 36179 ft 505 kts 36°
2026-05-07 04:03 12.33540 107.80942 36478 ft 503 kts 40°
2026-05-07 04:03 12.36139 107.83337 36709 ft 503 kts 42°
2026-05-07 04:03 12.38701 107.85783 36995 ft 502 kts 42°
2026-05-07 04:04 12.41250 107.88220 37275 ft 501 kts 41°
2026-05-07 04:04 12.43814 107.90639 37555 ft 500 kts 41°
2026-05-07 04:04 12.46335 107.93013 37815 ft 499 kts 41°
2026-05-07 04:04 12.48894 107.95442 38071 ft 499 kts 41°
2026-05-07 04:05 12.51431 107.97857 38323 ft 498 kts 41°
2026-05-07 04:05 12.53976 108.00269 38583 ft 497 kts 41°
2026-05-07 04:05 12.56512 108.02670 38803 ft 496 kts 41°
2026-05-07 04:05 12.59023 108.05052 38908 ft 498 kts 41°
2026-05-07 04:06 12.61574 108.07476 38909 ft 499 kts 41°
2026-05-07 04:06 12.66673 108.12265 38909 ft 493 kts 35°
2026-05-07 04:07 12.72280 108.16281 38921 ft 493 kts 33°
2026-05-07 04:07 12.77930 108.20296 38925 ft 493 kts 33°
2026-05-07 04:08 12.83539 108.24271 38925 ft 493 kts 33°
2026-05-07 04:08 12.89188 108.28284 38928 ft 492 kts 33°
2026-05-07 04:09 12.94801 108.32269 38934 ft 493 kts 33°
2026-05-07 04:09 13.00443 108.36280 38929 ft 493 kts 32°
2026-05-07 04:10 13.06092 108.40296 38935 ft 494 kts 32°
2026-05-07 04:10 13.11705 108.44290 38933 ft 493 kts 32°
2026-05-07 04:11 13.17351 108.48308 38932 ft 493 kts 32°
2026-05-07 04:11 13.22997 108.52331 38931 ft 493 kts 33°
2026-05-07 04:12 13.28597 108.56321 38930 ft 493 kts 33°
2026-05-07 04:12 13.34243 108.60346 38930 ft 493 kts 33°
2026-05-07 04:13 13.39906 108.64376 38932 ft 493 kts 33°
2026-05-07 04:13 13.45521 108.68380 38929 ft 494 kts 33°
2026-05-07 04:14 13.51176 108.72412 38929 ft 493 kts 33°
2026-05-07 04:14 13.56785 108.76414 38929 ft 493 kts 33°
2026-05-07 04:15 13.62420 108.80437 38929 ft 493 kts 33°
2026-05-07 04:15 13.68066 108.84471 38928 ft 493 kts 33°
2026-05-07 04:16 13.73667 108.88475 38933 ft 493 kts 33°
2026-05-07 04:16 13.79312 108.92512 38928 ft 493 kts 33°
2026-05-07 04:17 13.84943 108.96542 38924 ft 493 kts 33°
2026-05-07 04:17 13.90540 109.00550 38923 ft 492 kts 33°
2026-05-07 04:18 13.96498 109.03949 38935 ft 488 kts 15°
2026-05-07 04:18 14.03159 109.05168 38920 ft 486 kts
2026-05-07 04:19 14.09848 109.05980 38919 ft 486 kts
2026-05-07 04:19 14.16589 109.06796 38913 ft 486 kts
2026-05-07 04:20 14.23277 109.07611 38919 ft 486 kts
2026-05-07 04:20 14.30013 109.08428 38918 ft 487 kts
2026-05-07 04:21 14.40082 109.09653 38913 ft 486 kts
2026-05-07 04:21 14.46812 109.10472 38915 ft 487 kts
2026-05-07 04:22 14.53558 109.11294 38911 ft 486 kts
2026-05-07 04:22 14.60235 109.12108 38907 ft 486 kts
2026-05-07 04:23 14.66970 109.12929 38908 ft 486 kts
2026-05-07 04:23 14.73674 109.13747 38910 ft 487 kts
2026-05-07 04:24 14.80414 109.14570 38911 ft 487 kts
2026-05-07 04:24 14.87152 109.15393 38915 ft 487 kts
2026-05-07 04:25 14.93892 109.16217 38914 ft 487 kts
2026-05-07 04:25 15.00580 109.17035 38912 ft 487 kts
2026-05-07 04:26 15.07350 109.17864 38910 ft 487 kts
2026-05-07 04:26 15.14046 109.18684 38903 ft 487 kts
2026-05-07 04:27 15.20789 109.19511 38909 ft 487 kts
2026-05-07 04:27 15.27534 109.20338 38908 ft 487 kts
2026-05-07 04:28 15.34230 109.21160 38912 ft 487 kts
2026-05-07 04:28 15.40979 109.21989 38910 ft 488 kts
2026-05-07 04:29 15.47715 109.22816 38913 ft 489 kts
2026-05-07 04:29 15.54486 109.23649 38904 ft 489 kts
2026-05-07 04:30 15.61250 109.24481 38900 ft 488 kts
2026-05-07 04:30 15.67960 109.25301 38899 ft 488 kts
2026-05-07 04:31 15.74704 109.26127 38899 ft 487 kts
2026-05-07 04:31 15.81457 109.26954 38898 ft 488 kts
2026-05-07 04:32 15.88155 109.27774 38898 ft 488 kts
2026-05-07 04:32 15.94923 109.28605 38902 ft 488 kts
2026-05-07 04:33 16.01674 109.29433 38905 ft 488 kts
2026-05-07 04:33 16.08389 109.30258 38904 ft 487 kts
2026-05-07 04:34 16.15148 109.31088 38904 ft 488 kts
2026-05-07 04:34 16.21868 109.31914 38907 ft 489 kts
2026-05-07 04:35 16.28640 109.32748 38909 ft 489 kts
2026-05-07 04:35 16.35369 109.33576 38913 ft 489 kts
2026-05-07 04:36 16.40995 109.34270 38913 ft 489 kts
2026-05-07 04:36 16.48884 109.35242 38911 ft 488 kts
2026-05-07 04:37 16.55604 109.36072 38914 ft 489 kts
2026-05-07 04:37 16.61263 109.36770 38910 ft 489 kts
2026-05-07 04:38 16.69120 109.37741 38912 ft 489 kts
2026-05-07 04:38 16.74739 109.38436 38910 ft 488 kts
2026-05-07 04:39 16.78070 109.39110 38944 ft 489 kts 16°
2026-05-07 04:39 16.81246 109.40439 38944 ft 493 kts 27°
2026-05-07 04:39 16.84139 109.42376 38941 ft 496 kts 38°
2026-05-07 04:39 16.86651 109.44878 38921 ft 499 kts 50°
2026-05-07 04:40 16.90681 109.50804 38909 ft 501 kts 54°
2026-05-07 04:40 16.94527 109.56822 38917 ft 501 kts 54°
2026-05-07 04:41 16.98443 109.62846 38919 ft 501 kts 54°
2026-05-07 04:41 17.02330 109.68888 38914 ft 501 kts 54°
2026-05-07 04:42 17.06232 109.74929 38920 ft 501 kts 54°
2026-05-07 04:42 17.10125 109.80976 38917 ft 500 kts 54°
2026-05-07 04:43 17.13996 109.86987 38922 ft 501 kts 54°
2026-05-07 04:43 17.17887 109.93038 38920 ft 500 kts 54°
2026-05-07 04:44 17.21743 109.99038 38919 ft 499 kts 54°
2026-05-07 04:44 17.25631 110.05093 38918 ft 500 kts 54°
2026-05-07 04:45 17.29513 110.11146 38918 ft 500 kts 54°
2026-05-07 04:45 17.33367 110.17160 38923 ft 500 kts 54°
2026-05-07 04:46 17.37243 110.23214 38926 ft 499 kts 54°
2026-05-07 04:46 17.41110 110.29258 38919 ft 498 kts 54°
2026-05-07 04:47 17.44970 110.35223 38920 ft 498 kts 54°
2026-05-07 04:47 17.48892 110.41241 38922 ft 499 kts 54°
2026-05-07 04:48 17.52803 110.47287 38926 ft 500 kts 54°
2026-05-07 04:48 17.56696 110.53283 38926 ft 500 kts 54°
2026-05-07 04:49 17.60610 110.59336 38916 ft 500 kts 54°
2026-05-07 04:49 17.64515 110.65369 38916 ft 500 kts 54°
2026-05-07 04:50 17.68426 110.71422 38920 ft 500 kts 54°
2026-05-07 04:50 17.72311 110.77438 38923 ft 500 kts 54°
2026-05-07 04:51 17.76221 110.83500 38925 ft 501 kts 54°
2026-05-07 04:51 17.80108 110.89529 38921 ft 501 kts 54°
2026-05-07 04:52 17.84010 110.95590 38924 ft 501 kts 54°
2026-05-07 04:52 17.87914 111.01657 38927 ft 501 kts 54°
2026-05-07 04:53 17.91812 111.07722 38919 ft 501 kts 54°
2026-05-07 04:53 17.95706 111.13785 38918 ft 500 kts 54°
2026-05-07 04:54 17.99602 111.19858 38919 ft 501 kts 54°
2026-05-07 04:54 18.03496 111.25932 38926 ft 501 kts 54°
2026-05-07 04:55 18.07364 111.31973 38928 ft 501 kts 54°
2026-05-07 04:55 18.11259 111.38060 38926 ft 501 kts 54°
2026-05-07 04:56 18.15149 111.44146 38924 ft 501 kts 54°
2026-05-07 04:56 18.19042 111.50242 38926 ft 501 kts 54°
2026-05-07 04:57 18.22916 111.56314 38921 ft 502 kts 54°
2026-05-07 04:57 18.26809 111.62422 38926 ft 502 kts 54°
2026-05-07 04:58 18.30678 111.68497 38927 ft 502 kts 54°
2026-05-07 04:58 18.34562 111.74603 38905 ft 502 kts 54°
2026-05-07 04:59 18.38446 111.80713 38923 ft 502 kts 54°
2026-05-07 04:59 18.42336 111.86839 38930 ft 502 kts 54°
2026-05-07 05:00 18.46193 111.92919 38928 ft 502 kts 54°
2026-05-07 05:00 18.50086 111.99061 38933 ft 503 kts 54°
2026-05-07 05:01 18.53972 112.05199 38932 ft 503 kts 54°
2026-05-07 05:01 18.57840 112.11314 38917 ft 504 kts 54°
2026-05-07 05:02 18.61729 112.17468 38915 ft 504 kts 54°
2026-05-07 05:02 18.65738 112.23536 38949 ft 501 kts 44°
2026-05-07 05:03 18.71062 112.28196 38929 ft 499 kts 33°
2026-05-07 05:03 18.76698 112.32414 38921 ft 499 kts 33°
2026-05-07 05:04 18.82340 112.36675 38932 ft 499 kts 33°
2026-05-07 05:04 18.87993 112.40933 38921 ft 498 kts 33°
2026-05-07 05:05 18.93602 112.45166 38925 ft 497 kts 33°
2026-05-07 05:05 18.99369 112.49151 38950 ft 492 kts 21°
2026-05-07 05:06 19.02581 112.50387 38953 ft 489 kts 10°
2026-05-07 05:06 19.05921 112.51070 38921 ft 488 kts
2026-05-07 05:06 19.12619 112.52296 38925 ft 488 kts
2026-05-07 05:07 19.19329 112.53510 38926 ft 489 kts
2026-05-07 05:07 19.26005 112.54730 38927 ft 489 kts
2026-05-07 05:08 19.32718 112.55951 38930 ft 489 kts
2026-05-07 05:08 19.39423 112.57175 38935 ft 488 kts
2026-05-07 05:09 19.46091 112.58391 38934 ft 488 kts
2026-05-07 05:09 19.52790 112.59615 38930 ft 488 kts
2026-05-07 05:10 19.59479 112.60838 38931 ft 488 kts
2026-05-07 05:10 19.66144 112.62057 38933 ft 487 kts
2026-05-07 05:11 19.72829 112.63282 38934 ft 488 kts
2026-05-07 05:11 19.79532 112.64510 38934 ft 488 kts
2026-05-07 05:12 19.86193 112.65732 38936 ft 488 kts
2026-05-07 05:12 19.92904 112.66964 38936 ft 488 kts
2026-05-07 05:13 19.99566 112.68189 38935 ft 488 kts
2026-05-07 05:13 20.06278 112.69423 38934 ft 488 kts
2026-05-07 05:14 20.12962 112.70654 38936 ft 487 kts
2026-05-07 05:14 20.19640 112.71884 38935 ft 487 kts
2026-05-07 05:15 20.26320 112.73112 38936 ft 486 kts
2026-05-07 05:15 20.32935 112.74330 38936 ft 485 kts
2026-05-07 05:16 20.39603 112.75558 38937 ft 485 kts
2026-05-07 05:16 20.46269 112.76787 38937 ft 485 kts
2026-05-07 05:17 20.52895 112.78010 38942 ft 486 kts
2026-05-07 05:17 20.59577 112.79244 38944 ft 486 kts
2026-05-07 05:18 20.66246 112.80477 38945 ft 486 kts
2026-05-07 05:18 20.72877 112.81704 38943 ft 485 kts
2026-05-07 05:19 20.79556 112.82941 38943 ft 486 kts
2026-05-07 05:19 20.86180 112.84169 38945 ft 485 kts
2026-05-07 05:20 20.92857 112.85407 38948 ft 485 kts
2026-05-07 05:20 20.99491 112.86639 38945 ft 485 kts
2026-05-07 05:21 21.09448 112.88490 37541 ft 483 kts
2026-05-07 05:21 21.12735 112.89102 36770 ft 482 kts
2026-05-07 05:22 21.16104 112.89727 35405 ft 497 kts
2026-05-07 05:22 21.19548 112.90367 34125 ft 509 kts
2026-05-07 05:22 21.23005 112.91266 32737 ft 522 kts 17°
2026-05-07 05:22 21.26334 112.92847 31861 ft 525 kts 27°
2026-05-07 05:23 21.29368 112.95031 31006 ft 525 kts 37°
2026-05-07 05:23 21.32004 112.97757 30145 ft 526 kts 48°
2026-05-07 05:23 21.34145 113.00935 29239 ft 525 kts 58°
2026-05-07 05:23 21.35732 113.04447 28406 ft 522 kts 69°
2026-05-07 05:24 21.36956 113.08114 27560 ft 518 kts 69°
2026-05-07 05:24 21.38151 113.11741 26745 ft 514 kts 70°
2026-05-07 05:24 21.39304 113.15311 25939 ft 510 kts 70°
2026-05-07 05:24 21.40092 113.17746 25395 ft 508 kts 70°
2026-05-07 05:25 21.41640 113.22475 24337 ft 504 kts 70°
2026-05-07 05:25 21.42409 113.24820 23819 ft 501 kts 70°
2026-05-07 05:25 21.43553 113.28334 22980 ft 498 kts 70°
2026-05-07 05:25 21.44688 113.31835 22197 ft 491 kts 70°
2026-05-07 05:26 21.46125 113.36256 21216 ft 451 kts 70°
2026-05-07 05:26 21.46825 113.38405 20732 ft 450 kts 70°
2026-05-07 05:26 21.47836 113.41512 20023 ft 442 kts 70°
2026-05-07 05:26 21.48840 113.44611 19328 ft 435 kts 70°
2026-05-07 05:27 21.49826 113.47656 18580 ft 424 kts 70°
2026-05-07 05:27 21.50776 113.50588 17823 ft 408 kts 70°
2026-05-07 05:27 21.51700 113.53438 17532 ft 395 kts 70°
2026-05-07 05:27 21.52593 113.56185 17264 ft 382 kts 69°
2026-05-07 05:28 21.53837 113.58657 16824 ft 373 kts 49°
2026-05-07 05:28 21.55568 113.60646 16429 ft 366 kts 44°
2026-05-07 05:28 21.57385 113.62565 15884 ft 366 kts 42°
2026-05-07 05:28 21.59225 113.64467 15193 ft 363 kts 42°
2026-05-07 05:29 21.60999 113.66350 14490 ft 354 kts 43°
2026-05-07 05:29 21.62732 113.68212 13818 ft 350 kts 43°
2026-05-07 05:29 21.64464 113.70054 13126 ft 355 kts 43°
2026-05-07 05:29 21.66275 113.71780 12955 ft 341 kts 38°
2026-05-07 05:30 21.68039 113.73519 12813 ft 345 kts 42°
2026-05-07 05:30 21.69774 113.75312 12567 ft 342 kts 41°
2026-05-07 05:30 21.71502 113.77007 12306 ft 330 kts 40°
2026-05-07 05:30 21.73190 113.78621 11999 ft 322 kts 40°
2026-05-07 05:31 21.74828 113.80212 11489 ft 321 kts 40°
2026-05-07 05:31 21.76489 113.81848 10885 ft 324 kts 41°
2026-05-07 05:31 21.78155 113.83482 10302 ft 325 kts 41°
2026-05-07 05:31 21.79836 113.85124 9737 ft 326 kts 41°
2026-05-07 05:32 21.81492 113.86743 9077 ft 314 kts 41°
2026-05-07 05:32 21.83107 113.88272 8420 ft 303 kts 35°
2026-05-07 05:32 21.84962 113.89169 7875 ft 293 kts 10°
2026-05-07 05:32 21.86972 113.89199 7424 ft 286 kts 345°
2026-05-07 05:33 21.88799 113.88478 7349 ft 280 kts 333°
2026-05-07 05:33 21.90614 113.87596 7265 ft 289 kts 333°
2026-05-07 05:33 21.92413 113.86685 7132 ft 288 kts 332°
2026-05-07 05:33 21.94225 113.85776 6970 ft 285 kts 333°
2026-05-07 05:34 21.96033 113.84881 6810 ft 285 kts 333°
2026-05-07 05:34 21.97836 113.83987 6652 ft 285 kts 333°
2026-05-07 05:34 21.99639 113.83089 6480 ft 286 kts 333°
2026-05-07 05:34 22.01457 113.82183 6115 ft 286 kts 333°
2026-05-07 05:35 22.03247 113.81291 5744 ft 282 kts 333°
2026-05-07 05:35 22.04996 113.80421 5383 ft 279 kts 333°
2026-05-07 05:35 22.06758 113.79543 5016 ft 277 kts 333°
2026-05-07 05:35 22.08503 113.78674 4606 ft 274 kts 334°
2026-05-07 05:36 22.10233 113.77812 4276 ft 271 kts 333°
2026-05-07 05:36 22.11901 113.76979 3955 ft 264 kts 334°
2026-05-07 05:36 22.13558 113.76153 3623 ft 259 kts 334°
2026-05-07 05:36 22.15178 113.75345 3293 ft 254 kts 334°
2026-05-07 05:37 22.16746 113.74563 2931 ft 238 kts 335°
2026-05-07 05:37 22.18181 113.73847 2711 ft 216 kts 335°
2026-05-07 05:37 22.19495 113.73191 2583 ft 204 kts 335°
2026-05-07 05:37 22.20753 113.72562 2450 ft 194 kts 335°
2026-05-07 05:38 22.21964 113.71955 2313 ft 190 kts 335°
2026-05-07 05:38 22.23235 113.71577 2096 ft 191 kts
2026-05-07 05:38 22.24385 113.72134 1993 ft 181 kts 39°
2026-05-07 05:38 22.25337 113.73024 2003 ft 182 kts 45°
2026-05-07 05:39 22.26297 113.73945 2017 ft 185 kts 44°
2026-05-07 05:39 22.27276 113.74854 2020 ft 184 kts 43°
2026-05-07 05:39 22.28148 113.75852 1951 ft 185 kts 65°
2026-05-07 05:39 22.28508 113.77148 1927 ft 180 kts 73°
2026-05-07 05:40 22.28984 113.78393 1847 ft 181 kts 71°
2026-05-07 05:40 22.29389 113.79598 1649 ft 160 kts 73°
2026-05-07 05:40 22.29739 113.80691 1425 ft 149 kts 73°
2026-05-07 05:40 22.30073 113.81739 1260 ft 150 kts 74°
2026-05-07 05:41 22.30411 113.82806 1061 ft 148 kts 74°
2026-05-07 05:41 22.30751 113.83852 885 ft 148 kts 72°
2026-05-07 05:41 22.31075 113.84870 719 ft 150 kts 71°
2026-05-07 05:41 22.31402 113.85924 520 ft 148 kts 71°
2026-05-07 05:42 22.31747 113.86972 318 ft 148 kts 69°
2026-05-07 05:42 22.32089 113.88016 113 ft 147 kts 69°
2026-05-07 05:42 22.32398 113.88957 44 ft 113 kts 72°
2026-05-07 05:42 22.32606 113.89605 42 ft 68 kts 71°
2026-05-07 05:43 22.32737 113.90009 42 ft 52 kts 71°
2026-05-07 05:43 22.32848 113.90353 41 ft 46 kts 71°
2026-05-07 05:43 22.32939 113.90661 42 ft 42 kts 81°
2026-05-07 05:43 22.32912 113.90952 44 ft 29 kts 100°
2026-05-07 05:44 22.32917 113.91128 43 ft 27 kts 72°
2026-05-07 05:44 22.32986 113.91343 43 ft 33 kts 70°
2026-05-07 05:44 22.33062 113.91576 43 ft 33 kts 70°
2026-05-07 05:44 22.33136 113.91808 43 ft 34 kts 71°
2026-05-07 05:45 22.33201 113.92009 42 ft 24 kts 71°
2026-05-07 05:45 22.33164 113.92125 43 ft 15 kts 160°
2026-05-07 05:45 22.33042 113.92167 43 ft 22 kts 161°
2026-05-07 05:45 22.32870 113.92232 43 ft 30 kts 161°
2026-05-07 05:46 22.32669 113.92307 43 ft 30 kts 161°
2026-05-07 05:46 22.32486 113.92376 43 ft 28 kts 161°
2026-05-07 05:46 22.32308 113.92444 42 ft 29 kts 160°
2026-05-07 05:46 22.32177 113.92509 42 ft 17 kts 125°
2026-05-07 05:47 22.32187 113.92617 42 ft 17 kts 71°
2026-05-07 05:47 22.32164 113.92692 41 ft 7 kts 160°
2026-05-07 05:47 22.32089 113.92720 41 ft 17 kts 161°
2026-05-07 05:47 22.31975 113.92763 41 ft 18 kts 161°
2026-05-07 05:48 22.31877 113.92802 42 ft 17 kts 158°
2026-05-07 05:48 22.31771 113.92852 42 ft 15 kts 156°
2026-05-07 05:48 22.31680 113.92888 42 ft 17 kts 160°
2026-05-07 05:48 22.31563 113.92941 42 ft 16 kts 135°
2026-05-07 05:49 22.31559 113.93007 42 ft 9 kts 71°
2026-05-07 05:49 22.31569 113.93039 42 ft 0 kts 71°
2026-05-07 05:50 22.31577 113.93062 42 ft 7 kts 70°
2026-05-07 05:50 22.31600 113.93132 42 ft 13 kts 70°
2026-05-07 05:50 22.31672 113.93187 42 ft 13 kts 357°
2026-05-07 05:50 22.31717 113.93191 42 ft 3 kts 37°
2026-05-07 05:51 22.31737 113.93226 42 ft 8 kts 69°
2026-05-07 05:51 22.31747 113.93257 42 ft 3 kts 70°
2026-05-07 05:51 22.31754 113.93278 42 ft 0 kts 71°
2026-05-07 06:01 22.31754 113.93277 42 ft 0 kts 71°